User: anonymous   Login
Location: *
(49.8044°N, 4.0558°E)
Time: 12:46:32
(UTC+00:00)
Language:

STARLINK-1240 - Orbit

View from above orbital plane
View from above orbital plane
View from above satellite
View from above satellite

Ground track
Ground track

The orbit data is extracted from the following two-line orbital elements,

1 45194U 20012S   20192.25001157  .00041309  00000-0  28378-2 0  9990
2 45194  52.9995 332.2030 0001459 122.4555 299.8476 15.05578633 22158
Epoch (UTC): 10 July 2020 06:00:01
Eccentricity: 0.0001459
inclination: 52.9995°
perigee height: 549 km
apogee height: 551 km
right ascension of ascending node: 332.2030°
argument of perigee: 122.4555°
revolutions per day: 15.05578633
mean anomaly at epoch: 299.8476°
orbit number at epoch: 2215

The dashed part of the orbit path shows where the satellite is in the earth's shadow,  

DLR